Location: Clarion
(42.7316°N, 93.7330°W)
Time: 08:35:47
(UTC+00:00)

SL-16 R/B - Pass Details

Date: 22 April 2026
Orbit: 841 x 845 km, 71.0° (Epoch: 17 May)

Event Time Altitude Azimuth Distance (km) Brightness Sun altitude
Rises 09:48:30 0° 317° (NW) 3,411 5.3 -16.3°
Reaches altitude 10° 09:51:59 10° 296° (WNW) 2,470 4.3 -15.7°
Enters shadow 09:53:50 14° 278° (W) 2,179 3.9 -15.5°
